Weather History for Wahpeton, ND

Change the Weather History Date:

Monday, February 11, 2013

  Actual Average (KFFM) Record (KFFM)
Temperature  
Mean Temperature 16 °F -  
Max Temperature 26 °F 17 °F 53 °F (2002)
Min Temperature 6 °F 0 °F -32 °F (1988)
Degree Days  
Heating Degree Days 49    
Moisture  
Dew Point 16 °F    
Average Humidity 84    
Maximum Humidity 93    
Minimum Humidity 74    
Precipitation  
Precipitation 0.00 in - - ()
Sea Level Pressure  
Sea Level Pressure 29.90 in    
Wind  
Wind Speed 21 mph (NW)    
Max Wind Speed 30 mph    
Max Gust Speed 38 mph    
Visibility 9 miles    
Events      
Averages and records for this station are not official NWS values.
T = Trace of Precipitation, MM = Missing Value Source: NWS Daily Summary

Daily Weather History Graph

Daily Weather History Graph

Search for Another Location

Airport:

Trip Planner

Search our weather history database for the weather conditions in past years. The results will help you decide how hot, cold, wet, or windy it might be!

Date:

Astronomy

Feb. 11, 2013 Rise Set
Actual Time 7:35 AM CST 5:46 PM CST
Civil Twilight 7:04 AM CST 6:17 PM CST
Nautical Twilight 6:28 AM CST 6:53 PM CST
Astronomical Twilight 5:53 AM CST 7:28 PM CST
Moon 7:52 AM CST (2/11) 7:55 PM CST (2/11)
Length of Visible Light 11h 13m
Length of Day
10h 11m
Waxing Crescent, 3% of the Moon is Illuminated
Feb 11
Waxing Crescent
Feb 17
First Quarter
Feb 25
Full
Mar 4
Last Quarter
Mar 11
New

Hourly Weather History & Observations

Time (CST) Temp. Windchill Dew Point Humidity Pressure Visibility Wind Dir Wind Speed Gust Speed Precip Events Conditions
12:15 AM 26.6 °F 10.3 °F 23.0 °F 86% 29.63 in - NNW 29.9 mph 36.8 mph N/A   Unknown
12:35 AM 26.6 °F 10.8 °F 23.0 °F 86% 29.64 in - North 27.6 mph 38.0 mph N/A   Unknown
12:55 AM 26.6 °F 13.4 °F 23.0 °F 86% 29.66 in - NNW 18.4 mph 33.4 mph N/A   Unknown
1:15 AM 23.0 °F 6.6 °F 21.2 °F 93% 29.67 in - NNW 25.3 mph 33.4 mph N/A   Unknown
1:35 AM 23.0 °F 6.9 °F 21.2 °F 93% 29.67 in - NNW 24.2 mph 33.4 mph N/A   Unknown
1:55 AM 23.0 °F 6.3 °F 21.2 °F 93% 29.68 in - NNW 26.5 mph 33.4 mph N/A   Unknown
2:15 AM 23.0 °F 6.6 °F 21.2 °F 93% 29.69 in - NNW 25.3 mph 36.8 mph N/A   Unknown
2:35 AM 23.0 °F 6.3 °F 21.2 °F 93% 29.71 in - NNW 26.5 mph 34.5 mph N/A   Unknown
2:55 AM 23.0 °F 6.3 °F 19.4 °F 86% 29.72 in - NNW 26.5 mph 34.5 mph N/A   Unknown
3:15 AM 23.0 °F 6.6 °F 19.4 °F 86% 29.74 in - NNW 25.3 mph 34.5 mph N/A   Unknown
3:35 AM 23.0 °F 6.6 °F 19.4 °F 86% 29.75 in - NNW 25.3 mph 33.4 mph N/A   Unknown
3:55 AM 23.0 °F 6.3 °F 19.4 °F 86% 29.75 in - NNW 26.5 mph 31.1 mph N/A   Unknown
4:15 AM 21.2 °F 4.9 °F 19.4 °F 93% 29.76 in - NNW 23.0 mph 31.1 mph N/A   Unknown
4:35 AM 21.2 °F 4.2 °F 19.4 °F 93% 29.77 in - NNW 25.3 mph 34.5 mph N/A   Unknown
4:55 AM 21.2 °F 5.2 °F 19.4 °F 93% 29.78 in - NNW 21.9 mph 34.5 mph N/A   Unknown
5:15 AM 21.2 °F 4.2 °F 19.4 °F 93% 29.79 in - NNW 25.3 mph 32.2 mph N/A   Unknown
5:35 AM 21.2 °F 5.2 °F 19.4 °F 93% 29.79 in - NNW 21.9 mph 35.7 mph N/A   Unknown
5:55 AM 21.2 °F 4.5 °F 19.4 °F 93% 29.81 in - NNW 24.2 mph 32.2 mph N/A   Unknown
6:15 AM 21.2 °F 4.2 °F 19.4 °F 93% 29.81 in - NNW 25.3 mph 33.4 mph N/A   Unknown
6:35 AM 21.2 °F 4.2 °F 17.6 °F 86% 29.82 in - NNW 25.3 mph 32.2 mph N/A   Unknown
6:55 AM 21.2 °F 4.9 °F 17.6 °F 86% 29.83 in - NNW 23.0 mph 31.1 mph N/A   Unknown
7:15 AM 21.2 °F 4.9 °F 17.6 °F 86% 29.84 in - NNW 23.0 mph 29.9 mph N/A   Unknown
7:35 AM 21.2 °F 3.9 °F 17.6 °F 86% 29.85 in - NNW 26.5 mph 33.4 mph N/A   Unknown
7:55 AM 21.2 °F 4.9 °F 17.6 °F 86% 29.86 in - NNW 23.0 mph 32.2 mph N/A   Unknown
8:15 AM 21.2 °F 5.2 °F 17.6 °F 86% 29.88 in - NNW 21.9 mph 27.6 mph N/A   Unknown
8:35 AM 21.2 °F 4.2 °F 17.6 °F 86% 29.88 in - NNW 25.3 mph 31.1 mph N/A   Overcast
8:55 AM 21.2 °F 4.9 °F 17.6 °F 86% 29.90 in - NW 23.0 mph 28.8 mph N/A   Overcast
9:15 AM 21.2 °F 5.2 °F 17.6 °F 86% 29.91 in - NW 21.9 mph - N/A   Overcast
9:35 AM 21.2 °F 5.2 °F 17.6 °F 86% 29.91 in - NW 21.9 mph - N/A   Overcast
9:55 AM 21.2 °F 4.5 °F 17.6 °F 86% 29.92 in - NW 24.2 mph - N/A   Overcast
10:15 AM 21.2 °F 6.0 °F 17.6 °F 86% 29.94 in - NW 19.6 mph - N/A   Overcast
10:35 AM 21.2 °F 6.4 °F 17.6 °F 86% 29.94 in - NW 18.4 mph - N/A   Overcast
10:55 AM 21.2 °F 5.6 °F 17.6 °F 86% 29.95 in - NW 20.7 mph - N/A   Unknown
11:15 AM 21.2 °F 6.4 °F 15.8 °F 80% 29.96 in 4.0 mi NW 18.4 mph - N/A   Overcast
11:35 AM 21.2 °F 6.8 °F 15.8 °F 80% 29.96 in 3.0 mi NW 17.3 mph - N/A   Overcast
11:55 AM 21.2 °F 6.4 °F 15.8 °F 80% 29.97 in 2.5 mi NW 18.4 mph - N/A   Overcast
12:15 PM 21.2 °F 6.4 °F 15.8 °F 80% 29.97 in 7.0 mi NW 18.4 mph - N/A   Overcast
12:35 PM 21.2 °F 7.8 °F 15.8 °F 80% 29.97 in 10.0 mi NW 15.0 mph 24.2 mph N/A   Overcast
12:55 PM 21.2 °F 7.3 °F 17.6 °F 86% 29.97 in 7.0 mi NW 16.1 mph - N/A   Overcast
1:15 PM 23.0 °F 8.7 °F 17.6 °F 80% 29.97 in 10.0 mi NW 18.4 mph 23.0 mph N/A   Overcast
1:35 PM 23.0 °F 8.3 °F 17.6 °F 80% 29.96 in 10.0 mi NW 19.6 mph - N/A   Overcast
1:55 PM 23.0 °F 8.7 °F 17.6 °F 80% 29.97 in 10.0 mi NW 18.4 mph 23.0 mph N/A   Overcast
2:15 PM 23.0 °F 8.7 °F 17.6 °F 80% 29.97 in 10.0 mi NW 18.4 mph - N/A   Overcast
2:35 PM 23.0 °F 9.6 °F 15.8 °F 74% 29.98 in 10.0 mi NW 16.1 mph - N/A   Overcast
2:55 PM 23.0 °F 10.1 °F 15.8 °F 74% 29.98 in 10.0 mi NW 15.0 mph - N/A   Overcast
3:15 PM 23.0 °F 9.2 °F 15.8 °F 74% 29.99 in 10.0 mi NW 17.3 mph - N/A   Overcast
3:35 PM 23.0 °F 9.6 °F 17.6 °F 80% 29.99 in 10.0 mi WNW 16.1 mph - N/A   Overcast
3:55 PM 23.0 °F 10.1 °F 17.6 °F 80% 29.99 in 10.0 mi WNW 15.0 mph - N/A   Overcast
4:55 PM 21.2 °F 8.9 °F 14.0 °F 74% 29.99 in 10.0 mi WNW 12.7 mph - N/A   Clear
5:15 PM 17.6 °F 5.0 °F 12.2 °F 79% 29.99 in 10.0 mi WNW 11.5 mph - N/A   Clear
5:35 PM 17.6 °F 6.4 °F 12.2 °F 79% 30.00 in 10.0 mi WNW 9.2 mph - N/A   Clear
5:55 PM 12.2 °F -1.0 °F 8.6 °F 85% 29.99 in 10.0 mi West 10.4 mph - N/A   Clear
6:15 PM 10.4 °F -1.5 °F 6.8 °F 85% 30.00 in 10.0 mi West 8.1 mph - N/A   Clear
6:35 PM 10.4 °F -3.3 °F 6.8 °F 85% 30.01 in 10.0 mi West 10.4 mph - N/A   Clear
6:55 PM 8.6 °F -5.5 °F 5.0 °F 85% 30.01 in 10.0 mi West 10.4 mph - N/A   Clear
7:15 PM 8.6 °F -3.7 °F 5.0 °F 85% 30.01 in 3.0 mi West 8.1 mph - N/A   Clear
7:35 PM 6.8 °F -6.9 °F 3.2 °F 85% 30.01 in 10.0 mi West 9.2 mph - N/A   Scattered Clouds
7:55 PM 10.4 °F -3.3 °F 6.8 °F 85% 30.01 in 10.0 mi West 10.4 mph - N/A   Overcast
8:15 PM 15.8 °F 2.1 °F 12.2 °F 86% 30.01 in 10.0 mi West 12.7 mph - N/A   Overcast
8:35 PM 17.6 °F 5.0 °F 12.2 °F 79% 30.01 in 10.0 mi West 11.5 mph - N/A   Overcast
8:55 PM 19.4 °F 7.9 °F 14.0 °F 80% 30.01 in 10.0 mi WNW 10.4 mph - N/A   Overcast
9:15 PM 19.4 °F 11.5 °F 14.0 °F 80% 30.01 in 10.0 mi West 5.8 mph - N/A   Overcast
9:35 PM 17.6 °F 10.7 °F 14.0 °F 86% 30.00 in 10.0 mi WSW 4.6 mph - N/A   Overcast
9:55 PM 19.4 °F 12.8 °F 14.0 °F 80% 30.00 in 7.0 mi SW 4.6 mph - N/A   Overcast
10:15 PM 19.4 °F 11.5 °F 14.0 °F 80% 30.00 in 10.0 mi SW 5.8 mph - N/A   Overcast
10:35 PM 19.4 °F 11.5 °F 14.0 °F 80% 29.99 in 10.0 mi SSW 5.8 mph - N/A   Overcast
10:55 PM 19.4 °F 11.5 °F 14.0 °F 80% 29.98 in 10.0 mi SSW 5.8 mph - N/A   Overcast
11:15 PM 19.4 °F 11.5 °F 14.0 °F 80% 29.98 in 10.0 mi SSW 5.8 mph - N/A   Overcast
11:35 PM 19.4 °F 10.4 °F 14.0 °F 80% 29.97 in 10.0 mi South 6.9 mph - N/A   Overcast
11:55 PM 19.4 °F 9.5 °F 15.8 °F 86% 29.96 in 2.0 mi South 8.1 mph - N/A   Overcast